Showing default

CHUANG XIN 19 (CX-19), 58505

Orbit data source: Space-Track

CHUANG XIN 19 (CX-19), 58505 is a payload satellite owned by Zhongguo Xingwang (CN) in LEO that was launched on Tue, 05 Dec 2023 UTC via a JIELONG-3 launch vehicle from the South China Sea Launch Area (SCSLA). Payload-class satellites include a variety of spacecraft equipped with specific instruments for various scientific and technological missions. These include communications satellites like Starlink; space stations such as the ISS; scientific satellites like the Hubble; Earth observation satellites from companies like Planet Labs, Umbra, and HawkEye 360; GPS; miniature CubeSats for education and research; and military/defense satellites.

Loading next visibility...
Identifier
58505, 2023-190A
Orbit
LEO
Country
Flag of CNCN / PRC
Related business
Manufacturer
SECM
Mission
Operational Commercial Communications
Bus & Motor
Unknown
Mass
~300 kg wet, ~300 kg dry
Launch date (UTC)
2023-12-05 (3 years ago)
Launch vehicle
JIELONG-3
Launch site
South China Sea Launch Area (SCSLA)
Object type
Payload
Rocket body
Debris
Shape & HBR
Box + 2 Pan, 1.3 m
Radar Cross Section
2.320 m², Large (>1 m²)

Expand to show TLE details & history
Last TLE update: 4 hours ago

TLE from 4 hours ago
0 CHUANG XIN 19 (CX-19)
1 58505U 23190A   26162.87339685  .00000058  00000-0  78373-4 0  9999
2 58505  86.5028 334.4193 0002246  96.1945 263.9454 13.39551778123984
Epoch: 2026-06-11T20:57Z
TLE epoch observation values (Epoch: 2026-06-11T20:57:41.487Z)
Latitude
-0°
Longitude
119.78549°
Altitude
1,114.044 km
Speed
7.295 km/s
True Right ascension
22h 17m 40s
True Declination
0° 00' 00"
Sunlit
Object was in daylight at epoch
Visualization orbit readout
Latitude
Unknown
Longitude
Unknown
Altitude
Unknown
Speed
Unknown
Apparent Right ascension
Unknown
Apparent Declination
Unknown
Sunlit
N/A
Visualization observer readout
Local Sidereal Time
11:46:39
Azimuth
Unknown
Elevation
Unknown
Doppler factor
Unknown
Orbital elements
Apogee altitude
1,109.729 km
Perigee altitude
1,106.366 km
Semi-major axis
7,486.184 km
Eccentricity
0.00022
Inclination
86.5028°
RAAN
334.4193°
Arg. of periapsis
96.1945°
True anomaly
263.91981°
Mean anomaly
263.9454°
Eccentric anomaly
263.9326°
Mean motion
3.35083 °/min
Orbital period
107.44 mins
BSTAR
0.000078373
Loading maneuver chart data...
Computing Atmospheric mass density...
Loading historical data...
Loading historical data...
Loading historical data...
Loading historical data...
Loading historical data...
Loading historical data...
Loading historical data...
Other satellites on launch #190 in the year 2023 (2023-12-05 UTC)

Documentation

Showing up to 5 results
|